[[{"header":{"parameterUnit":"m.s-1","parameterCategory":1,"la1":30.2992,"la2":30.254,"lo1":-89.0895,"lo2":-89.0443,"dy":0.0025,"dx":0.0025,"nx":19,"ny":19,"refTime":"2026-03-22T03:00:00:Z","depth":0,"parameterNumber":2,"parameterNumberName":"U-component_of_WINDS"},"data":[0,0,0,3.3377,3.338,3.3545,3.3546,3.3758,3.376,0,0,0,0,0,0,0,0,0,0,0,3.3327,3.3328,3.3376,3.3381,3.3545,3.3546,3.3757,3.376,0,0,0,0,0,0,0,0,0,0,0,3.3326,3.3328,3.3329,3.3381,3.3545,3.3546,3.3757,3.3633,0,0,0,0,0,0,0,0,0,0,3.3473,3.3425,3.3327,3.3329,3.3382,3.3545,3.3546,3.3627,3.364,3.3683,0,3.3719,0,3.3743,3.3774,3.3774,0,0,0,3.3382,3.3413,3.3459,3.333,3.3384,3.3544,3.3471,3.3634,3.365,3.3701,3.3722,3.373,3.3746,3.3775,3.3776,3.4015,3.4016,0,0,3.3373,3.3356,3.3448,3.3469,3.3441,3.3466,3.3476,3.3644,3.3666,3.3723,3.3735,3.375,3.3776,3.3778,3.4014,3.4015,0,0,0,3.3346,3.335,3.3391,3.346,3.3489,3.3471,3.3483,3.3658,3.3673,3.3737,3.3752,3.3778,3.378,3.4013,3.4014,3.405,0,0,0,3.334,3.3334,3.3387,3.3378,3.3486,3.3576,3.3493,3.3662,3.3681,3.3751,3.3778,3.3782,3.4011,3.4013,3.4047,3.4071,0,0,0,3.3317,3.3331,3.3354,3.3377,3.3447,3.3573,3.3598,3.3666,3.369,3.3775,3.3783,3.4011,3.4013,3.4044,3.4066,3.413,0,0,0,3.3286,3.3384,3.3355,3.3469,3.3446,3.3593,3.3597,3.3708,3.3785,3.3779,3.4012,3.4014,3.4043,3.4063,3.4126,3.4181,3.4202,0,0,3.34,3.3397,3.3466,3.3445,3.3593,3.357,3.3725,3.3811,3.3835,3.3954,3.396,3.4048,3.4065,3.4129,3.4323,3.434,0,0,0,3.3496,3.3546,3.3589,3.3661,3.3728,3.379,3.3854,3.3886,3.3988,3.3892,3.4088,3.4099,3.4137,3.4165,3.4179,3.4213,3.4025,3.4025,3.4025,3.3634,3.3659,3.3775,3.382,3.389,3.3956,3.4016,3.4071,3.4076,3.4122,3.4158,3.4273,3.4304,3.4314,3.435,3.4188,3.4188,3.4188,3.4188,3.3804,3.3879,3.3883,3.3998,3.4024,3.4122,3.419,3.419,3.4286,3.4247,3.4282,3.4238,3.4331,3.4364,3.4191,3.4191,3.419,3.419,3.419,3.3897,3.3938,3.3975,3.4083,3.4163,3.4206,3.4298,3.4319,3.434,3.4374,3.4415,3.4415,3.4418,3.4392,3.4392,3.4393,3.4393,3.4393,3.4394,3.398,3.4021,3.4095,3.4177,3.4226,3.4295,3.4363,3.4414,3.4475,3.4483,3.4484,3.4485,3.4335,3.4298,3.44,3.4399,3.4398,3.4397,3.4397,3.4145,3.4111,3.4226,3.4276,3.4374,3.4454,3.448,3.4581,3.4625,3.4671,3.4665,3.455,3.4549,3.4538,3.4507,3.4658,3.4658,3.4658,3.4658,3.4225,3.4226,3.4349,3.4428,3.4508,3.4543,3.4674,3.4729,3.4781,3.4811,3.4792,3.4753,3.4741,3.4747,3.4731,3.4703,3.49,3.49,3.4901,3.4329,3.4339,3.4446,3.4495,3.4574,3.4642,3.4767,3.4859,3.491,3.4911,3.4835,3.4825,3.4762,3.474,3.4739,3.4714,3.4663,0,0]},{"header":{"parameterUnit":"m.s-1","parameterCategory":1,"la1":30.2992,"la2":30.254,"lo1":-89.0895,"lo2":-89.0443,"dy":0.0025,"dx":0.0025,"nx":19,"ny":19,"refTime":"2026-03-22T03:00:00:Z","depth":0,"parameterNumber":3,"parameterNumberName":"V-component_of_WINDS"},"data":[0,0,0,-0.605,-0.6051,-0.6084,-0.6084,-0.6125,-0.6125,0,0,0,0,0,0,0,0,0,0,0,-0.6039,-0.604,-0.605,-0.6051,-0.6084,-0.6084,-0.6125,-0.6125,0,0,0,0,0,0,0,0,0,0,0,-0.6039,-0.604,-0.604,-0.6051,-0.6084,-0.6084,-0.6125,-0.61,0,0,0,0,0,0,0,0,0,0,-0.6068,-0.6058,-0.6039,-0.604,-0.6051,-0.6084,-0.6084,-0.6099,-0.6102,-0.6109,0,-0.6116,0,-0.6121,-0.6128,-0.6128,0,0,0,-0.6051,-0.6055,-0.6065,-0.604,-0.6051,-0.6084,-0.6069,-0.6101,-0.6104,-0.6113,-0.6117,-0.6118,-0.6122,-0.6128,-0.6129,-0.6172,-0.6172,0,0,-0.6049,-0.6045,-0.6063,-0.6067,-0.6062,-0.6068,-0.607,-0.6103,-0.6106,-0.6117,-0.6119,-0.6123,-0.6129,-0.6129,-0.6171,-0.6172,0,0,0,-0.6044,-0.6043,-0.6052,-0.6065,-0.6072,-0.6069,-0.6071,-0.6105,-0.6108,-0.612,-0.6123,-0.6129,-0.6129,-0.6171,-0.6171,-0.6176,0,0,0,-0.6043,-0.604,-0.6052,-0.6049,-0.6071,-0.6088,-0.6073,-0.6106,-0.611,-0.6123,-0.6129,-0.613,-0.6171,-0.6171,-0.6176,-0.6179,0,0,0,-0.6037,-0.6039,-0.6044,-0.6049,-0.6063,-0.6088,-0.6093,-0.6107,-0.6112,-0.6128,-0.613,-0.6171,-0.6171,-0.6175,-0.6178,-0.619,0,0,0,-0.603,-0.6047,-0.6044,-0.6064,-0.6063,-0.6091,-0.6093,-0.6114,-0.6129,-0.6129,-0.6171,-0.6171,-0.6175,-0.6178,-0.6189,-0.6199,-0.6202,0,0,-0.6049,-0.6049,-0.6061,-0.606,-0.6087,-0.6086,-0.6115,-0.6132,-0.6137,-0.616,-0.6161,-0.6176,-0.6178,-0.619,-0.6222,-0.6225,0,0,0,-0.6066,-0.6074,-0.6083,-0.6097,-0.6111,-0.6124,-0.6138,-0.6145,-0.6164,-0.6148,-0.6183,-0.6184,-0.6191,-0.6196,-0.6198,-0.6205,-0.6173,-0.6173,-0.6173,-0.6085,-0.6092,-0.6113,-0.6124,-0.6138,-0.6153,-0.6165,-0.6176,-0.6178,-0.6187,-0.6193,-0.6213,-0.6218,-0.622,-0.6226,-0.6199,-0.6199,-0.6199,-0.6199,-0.6113,-0.6127,-0.6131,-0.6153,-0.616,-0.6179,-0.6194,-0.6195,-0.6214,-0.6208,-0.6214,-0.6207,-0.6222,-0.6229,-0.6199,-0.6199,-0.6199,-0.6199,-0.6199,-0.6126,-0.6134,-0.6143,-0.6165,-0.6181,-0.6192,-0.621,-0.6216,-0.6221,-0.6228,-0.6236,-0.6236,-0.6237,-0.6231,-0.6231,-0.6231,-0.6231,-0.6231,-0.6232,-0.6137,-0.6146,-0.6161,-0.6179,-0.6189,-0.6204,-0.622,-0.623,-0.6243,-0.6246,-0.6246,-0.6248,-0.6223,-0.6216,-0.6233,-0.6232,-0.6232,-0.6232,-0.6232,-0.6163,-0.6159,-0.6181,-0.6192,-0.6214,-0.623,-0.6238,-0.6259,-0.6268,-0.6277,-0.6278,-0.6258,-0.6258,-0.6257,-0.6252,-0.6276,-0.6276,-0.6276,-0.6276,-0.6175,-0.6176,-0.6201,-0.6218,-0.6235,-0.6245,-0.6271,-0.6284,-0.6296,-0.6303,-0.63,-0.6293,-0.6291,-0.6293,-0.6291,-0.6286,-0.6319,-0.6319,-0.6319,-0.6192,-0.6195,-0.6216,-0.6229,-0.6247,-0.6262,-0.6287,-0.6306,-0.6319,-0.6321,-0.6308,-0.6306,-0.6296,-0.6292,-0.6293,-0.6289,-0.628,0,0]}]]